TimeMST,TemperatureF,Dew PointF,Humidity,Sea Level PressureIn,VisibilityMPH,Wind Direction,Wind SpeedMPH,Gust SpeedMPH,PrecipitationIn,Events,Conditions,WindDirDegrees,DateUTC
12:57 AM,35.1,23.0,61,30.01,10.0,Calm,Calm,-,N/A,,Clear,0,2011-10-20 07:57:00
1:57 AM,34.0,21.9,61,30.02,10.0,Calm,Calm,-,N/A,,Clear,0,2011-10-20 08:57:00
2:57 AM,33.8,21.2,60,30.20,10.0,Calm,Calm,-,N/A,,Clear,0,2011-10-20 09:57:00
3:57 AM,30.9,21.9,69,30.01,10.0,Calm,Calm,-,N/A,,Clear,0,2011-10-20 10:57:00
4:57 AM,30.0,21.9,72,30.03,10.0,Calm,Calm,-,N/A,,Clear,0,2011-10-20 11:57:00
5:57 AM,30.0,23.0,75,30.06,10.0,Calm,Calm,-,N/A,,Clear,0,2011-10-20 12:57:00
6:57 AM,28.9,21.9,75,30.12,10.0,Calm,Calm,-,N/A,,Clear,0,2011-10-20 13:57:00
7:57 AM,41.0,27.0,57,30.12,10.0,Calm,Calm,-,N/A,,Clear,0,2011-10-20 14:57:00
8:57 AM,55.9,30.0,37,30.07,10.0,Calm,Calm,-,N/A,,Clear,0,2011-10-20 15:57:00
9:57 AM,61.0,21.9,22,30.07,10.0,WSW,8.1,-,N/A,,Clear,240,2011-10-20 16:57:00
10:57 AM,64.0,21.9,20,30.07,10.0,SSW,8.1,-,N/A,,Clear,210,2011-10-20 17:57:00
11:57 AM,66.0,23.0,20,30.06,10.0,SSW,11.5,19.6,N/A,,Clear,200,2011-10-20 18:57:00
12:57 PM,66.0,21.0,18,30.05,10.0,SSW,10.4,18.4,N/A,,Clear,200,2011-10-20 19:57:00
1:57 PM,66.9,19.9,17,30.04,10.0,SW,11.5,23.0,N/A,,Clear,220,2011-10-20 20:57:00
2:57 PM,66.9,19.9,17,30.05,10.0,SSW,12.7,-,N/A,,Clear,210,2011-10-20 21:57:00
3:57 PM,66.0,19.0,17,30.06,10.0,SW,12.7,19.6,N/A,,Clear,220,2011-10-20 22:57:00
4:57 PM,64.0,21.0,19,30.09,10.0,SW,13.8,-,N/A,,Clear,220,2011-10-20 23:57:00
5:57 PM,55.9,24.1,29,30.13,10.0,SW,3.5,-,N/A,,Clear,220,2011-10-21 00:57:00
6:57 PM,50.0,24.1,36,30.17,10.0,SSW,5.8,-,N/A,,Clear,210,2011-10-21 01:57:00
7:57 PM,50.0,23.0,35,30.13,10.0,SSW,6.9,-,N/A,,Clear,200,2011-10-21 02:57:00
8:57 PM,45.0,23.0,42,30.11,10.0,SW,3.5,-,N/A,,Clear,220,2011-10-21 03:57:00
9:57 PM,39.9,25.0,55,30.12,10.0,Calm,Calm,-,N/A,,Clear,0,2011-10-21 04:57:00
10:57 PM,37.9,23.0,55,30.13,10.0,Calm,Calm,-,N/A,,Clear,0,2011-10-21 05:57:00
11:57 PM,34.0,21.9,61,30.14,10.0,Calm,Calm,-,N/A,,Clear,0,2011-10-21 06:57:00